UAE2YM OMDB-YMML

Flight info

Callsign UAE2YM
Flight time N/A
Altitude 33000
Route ANVIX L223 TARDI N629 GIDAN P570 EMURU M300 MESAN/N0498F350 M300 VASTU P895 BIKOK M641 KAT N640 PIMOG/N0490F370 N640 ELATI DCT 0800S09530E 14S102E 17S106E 19S109E/N0479F390 21S112E DCT LM DCT 25S117E DCT LST DCT 29S123E 31S127E 33S132E DCT KAMBI N640 AD V255 BENDO Y12 ARBEY
Aircraft A388/J-SADE2E3FGHIJ3J4J5M1RWXY/LB1D1

Departure

Time 2026-05-03 22:54
Airport Dubai International Airport (OMDB)

Arrival

Time N/A
Airport Melbourne Airport (YMML)
Time Latitude Longitude Altitude Speed Heading
2026-05-03 22:33 25.25329 55.35509 14 ft 0 kts 212°
2026-05-03 22:44 25.25341 55.35516 15 ft 2 kts 211°
2026-05-03 22:44 25.25355 55.35526 16 ft 2 kts 210°
2026-05-03 22:44 25.25369 55.35535 16 ft 2 kts 217°
2026-05-03 22:45 25.25377 55.35550 18 ft 2 kts 250°
2026-05-03 22:45 25.25381 55.35568 19 ft 2 kts 264°
2026-05-03 22:45 25.25379 55.35586 17 ft 2 kts 280°
2026-05-03 22:45 25.25374 55.35603 18 ft 2 kts 291°
2026-05-03 22:46 25.25367 55.35619 18 ft 2 kts 300°
2026-05-03 22:46 25.25358 55.35634 17 ft 2 kts 302°
2026-05-03 22:46 25.25349 55.35649 17 ft 2 kts 302°
2026-05-03 22:46 25.25341 55.35665 18 ft 2 kts 302°
2026-05-03 22:47 25.25333 55.35678 17 ft 1 kts 302°
2026-05-03 22:47 25.25332 55.35681 17 ft 0 kts 303°
2026-05-03 22:49 25.25333 55.35679 17 ft 2 kts 302°
2026-05-03 22:50 25.25372 55.35666 16 ft 8 kts 27°
2026-05-03 22:50 25.25422 55.35708 14 ft 10 kts 41°
2026-05-03 22:50 25.25485 55.35757 14 ft 12 kts 30°
2026-05-03 22:50 25.25504 55.35769 14 ft 0 kts 31°
2026-05-03 22:51 25.25511 55.35774 14 ft 3 kts 30°
2026-05-03 22:52 25.25540 55.35792 14 ft 7 kts 30°
2026-05-03 22:52 25.25581 55.35828 14 ft 8 kts 60°
2026-05-03 22:52 25.25590 55.35884 14 ft 8 kts 105°
2026-05-03 22:52 25.25569 55.35934 14 ft 0 kts 122°
2026-05-03 22:53 25.25568 55.35936 14 ft 2 kts 122°
2026-05-03 22:53 25.25566 55.35940 14 ft 4 kts 123°
2026-05-03 22:53 25.25424 55.36186 14 ft 76 kts 122°
2026-05-03 22:53 25.25012 55.36917 16 ft 142 kts 121°
2026-05-03 22:54 25.24415 55.37981 36 ft 181 kts 124°
2026-05-03 22:54 25.23726 55.39196 420 ft 185 kts 122°
2026-05-03 22:54 25.23058 55.40415 790 ft 196 kts 122°
2026-05-03 22:54 25.22330 55.41747 1155 ft 205 kts 121°
2026-05-03 22:55 25.21581 55.43116 1535 ft 213 kts 121°
2026-05-03 22:55 25.20852 55.44456 1944 ft 215 kts 121°
2026-05-03 22:55 25.20098 55.45851 2312 ft 210 kts 122°
2026-05-03 22:55 25.19361 55.47222 2639 ft 206 kts 121°
2026-05-03 22:56 25.18619 55.48610 2828 ft 213 kts 122°
2026-05-03 22:56 25.17859 55.50036 3005 ft 218 kts 122°
2026-05-03 22:56 25.17111 55.51445 3198 ft 221 kts 122°
2026-05-03 22:56 25.16327 55.52924 3376 ft 223 kts 121°
2026-05-03 22:57 25.15555 55.54388 3589 ft 224 kts 121°
2026-05-03 22:57 25.14751 55.55859 3697 ft 231 kts 125°
2026-05-03 22:57 25.13772 55.57368 3830 ft 249 kts 127°
2026-05-03 22:57 25.13024 55.58516 3931 ft 263 kts 126°
2026-05-03 22:58 25.12754 55.58945 3968 ft 267 kts 126°
2026-05-03 22:58 25.11713 55.60676 4388 ft 272 kts 124°
2026-05-03 22:58 25.10532 55.62312 4903 ft 273 kts 137°
2026-05-03 22:59 25.09145 55.63766 5131 ft 288 kts 138°
2026-05-03 22:59 25.07689 55.65346 5485 ft 298 kts 137°
2026-05-03 22:59 25.06208 55.66985 5961 ft 301 kts 136°
2026-05-03 22:59 25.04727 55.68630 6462 ft 304 kts 136°
2026-05-03 23:00 25.03237 55.70281 6971 ft 306 kts 136°
2026-05-03 23:00 25.01725 55.71954 7481 ft 308 kts 136°
2026-05-03 23:00 25.00227 55.73611 7991 ft 310 kts 136°
2026-05-03 23:00 24.98670 55.75329 8512 ft 312 kts 136°
2026-05-03 23:01 24.97160 55.76996 9015 ft 315 kts 136°
2026-05-03 23:01 24.95593 55.78721 9561 ft 317 kts 137°
2026-05-03 23:01 24.93868 55.80241 9974 ft 320 kts 151°
2026-05-03 23:01 24.91877 55.81326 10313 ft 326 kts 160°
2026-05-03 23:02 24.89718 55.82290 10449 ft 341 kts 160°
2026-05-03 23:02 24.87474 55.83335 10596 ft 355 kts 159°
2026-05-03 23:02 24.85233 55.84537 10755 ft 368 kts 148°
2026-05-03 23:02 24.83245 55.86357 11217 ft 372 kts 133°
2026-05-03 23:03 24.81668 55.88604 11681 ft 374 kts 125°
2026-05-03 23:03 24.80143 55.90927 12159 ft 376 kts 126°
2026-05-03 23:03 24.79494 55.91890 12365 ft 377 kts 126°
2026-05-03 23:04 24.78451 55.93386 12652 ft 379 kts 130°
2026-05-03 23:04 24.76631 55.95441 13170 ft 380 kts 138°
2026-05-03 23:04 24.74659 55.97428 13663 ft 382 kts 137°
2026-05-03 23:04 24.72726 55.99401 14042 ft 385 kts 137°
2026-05-03 23:05 24.70755 56.01427 14457 ft 388 kts 137°
2026-05-03 23:05 24.68782 56.03458 14878 ft 390 kts 137°
2026-05-03 23:05 24.66790 56.05510 15262 ft 393 kts 137°
2026-05-03 23:05 24.64790 56.07571 15663 ft 396 kts 136°
2026-05-03 23:06 24.62770 56.09652 16086 ft 398 kts 136°
2026-05-03 23:06 24.60733 56.11748 16478 ft 401 kts 136°
2026-05-03 23:06 24.58691 56.13848 16878 ft 404 kts 136°
2026-05-03 23:06 24.56677 56.16009 17244 ft 406 kts 131°
2026-05-03 23:07 24.54837 56.18369 17627 ft 408 kts 130°
2026-05-03 23:07 24.53010 56.20713 18030 ft 410 kts 130°
2026-05-03 23:07 24.51140 56.23098 18361 ft 413 kts 130°
2026-05-03 23:07 24.49259 56.25492 18681 ft 415 kts 130°
2026-05-03 23:08 24.47364 56.27902 18993 ft 418 kts 130°
2026-05-03 23:08 24.45464 56.30318 19312 ft 420 kts 130°
2026-05-03 23:08 24.43544 56.32759 19585 ft 423 kts 130°
2026-05-03 23:08 24.41617 56.35208 19875 ft 425 kts 130°
2026-05-03 23:09 24.39681 56.37667 20176 ft 428 kts 130°
2026-05-03 23:09 24.37732 56.40140 20471 ft 430 kts 130°
2026-05-03 23:09 24.35764 56.42638 20763 ft 432 kts 131°
2026-05-03 23:09 24.33795 56.45135 21054 ft 434 kts 131°
2026-05-03 23:10 24.31831 56.47624 21353 ft 437 kts 131°
2026-05-03 23:10 24.29848 56.50160 21642 ft 439 kts 128°
2026-05-03 23:10 24.28035 56.52863 21923 ft 441 kts 125°
2026-05-03 23:10 24.26230 56.55603 22218 ft 444 kts 126°
2026-05-03 23:11 24.24416 56.58342 22521 ft 446 kts 126°
2026-05-03 23:11 24.22576 56.61111 22790 ft 449 kts 126°
2026-05-03 23:11 24.20730 56.63888 23092 ft 451 kts 126°
2026-05-03 23:11 24.18875 56.66677 23380 ft 453 kts 126°
2026-05-03 23:12 24.17014 56.69474 23644 ft 455 kts 126°
2026-05-03 23:12 24.15898 56.71149 23775 ft 456 kts 126°
2026-05-03 23:13 24.14702 56.72946 23934 ft 458 kts 126°
2026-05-03 23:13 24.12842 56.75737 24156 ft 460 kts 126°
2026-05-03 23:13 24.10952 56.78573 24387 ft 462 kts 126°
2026-05-03 23:13 24.09540 56.80690 24591 ft 464 kts 126°
2026-05-03 23:14 24.08557 56.82164 24691 ft 465 kts 126°
2026-05-03 23:14 24.06642 56.85034 24911 ft 467 kts 126°
2026-05-03 23:14 24.06378 56.85430 24941 ft 468 kts 126°
2026-05-03 23:14 24.04618 56.88072 25145 ft 469 kts 126°
2026-05-03 23:15 24.02685 56.90963 25364 ft 471 kts 126°
2026-05-03 23:15 24.02241 56.91627 25421 ft 472 kts 126°
2026-05-03 23:15 24.00518 56.94205 25623 ft 474 kts 126°
2026-05-03 23:15 23.98565 56.97123 25844 ft 476 kts 126°
2026-05-03 23:16 23.97266 56.99062 26012 ft 477 kts 126°
2026-05-03 23:16 23.95299 57.01998 26255 ft 479 kts 126°
2026-05-03 23:16 23.93327 57.04939 26495 ft 482 kts 126°
2026-05-03 23:16 23.91343 57.07898 26719 ft 484 kts 127°
2026-05-03 23:17 23.89342 57.10882 26993 ft 486 kts 127°
2026-05-03 23:17 23.87342 57.13860 27233 ft 489 kts 126°
2026-05-03 23:17 23.85319 57.16872 27516 ft 490 kts 126°
2026-05-03 23:17 23.83303 57.19872 27774 ft 492 kts 126°
2026-05-03 23:18 23.81270 57.22895 28056 ft 495 kts 126°
2026-05-03 23:18 23.79217 57.25945 28328 ft 497 kts 126°
2026-05-03 23:18 23.77189 57.28957 28576 ft 500 kts 127°
2026-05-03 23:18 23.75155 57.31976 28843 ft 502 kts 127°
2026-05-03 23:19 23.73046 57.35103 29150 ft 505 kts 127°
2026-05-03 23:19 23.70946 57.38191 29431 ft 508 kts 128°
2026-05-03 23:19 23.68755 57.41233 29622 ft 512 kts 129°
2026-05-03 23:19 23.66530 57.44248 29929 ft 514 kts 129°
2026-05-03 23:20 23.64280 57.47298 30279 ft 514 kts 129°
2026-05-03 23:20 23.62040 57.50350 30529 ft 516 kts 129°
2026-05-03 23:20 23.59792 57.53427 30812 ft 518 kts 129°
2026-05-03 23:20 23.57562 57.56485 31115 ft 520 kts 129°
2026-05-03 23:21 23.55307 57.59579 31394 ft 522 kts 129°
2026-05-03 23:21 23.53029 57.62704 31658 ft 524 kts 129°
2026-05-03 23:21 23.50787 57.65776 31933 ft 526 kts 129°
2026-05-03 23:21 23.48496 57.68913 32157 ft 530 kts 129°
2026-05-03 23:22 23.43877 57.75226 32780 ft 532 kts 130°
2026-05-03 23:22 23.39210 57.81590 32832 ft 547 kts 130°
2026-05-03 23:23 23.34412 57.88128 32815 ft 554 kts 130°
2026-05-03 23:23 23.29610 57.94666 32814 ft 555 kts 130°
2026-05-03 23:24 23.24812 58.01197 32823 ft 555 kts 128°
2026-05-03 23:24 23.20415 58.08109 32826 ft 555 kts 125°
2026-05-03 23:25 23.16025 58.15065 32829 ft 555 kts 125°
2026-05-03 23:25 23.11672 58.21942 32821 ft 555 kts 125°
2026-05-03 23:26 23.07302 58.28838 32818 ft 555 kts 125°
2026-05-03 23:26 23.02665 58.35585 32830 ft 553 kts 135°
2026-05-03 23:27 22.96794 58.40893 32833 ft 547 kts 150°
2026-05-03 23:27 22.90300 58.45147 32829 ft 546 kts 151°
2026-05-03 23:28 22.83801 58.49466 32809 ft 546 kts 151°
2026-05-03 23:28 22.77370 58.53731 32824 ft 545 kts 151°
2026-05-03 23:29 22.70870 58.58030 32818 ft 545 kts 151°
2026-05-03 23:29 22.64373 58.62321 32817 ft 545 kts 151°
2026-05-03 23:30 22.57924 58.66577 32806 ft 545 kts 151°
2026-05-03 23:30 22.51455 58.70842 32813 ft 543 kts 151°
2026-05-03 23:31 22.45045 58.75064 32805 ft 543 kts 151°
2026-05-03 23:31 22.38598 58.79305 32801 ft 543 kts 151°
2026-05-03 23:32 22.32136 58.83551 32797 ft 542 kts 151°
2026-05-03 23:32 22.25750 58.87888 32798 ft 543 kts 145°
2026-05-03 23:33 22.20155 58.93370 32792 ft 546 kts 132°
2026-05-03 23:33 22.15302 58.99711 32789 ft 546 kts 130°
2026-05-03 23:34 22.10457 59.05980 32777 ft 547 kts 130°
2026-05-03 23:34 22.05589 59.12270 32779 ft 548 kts 130°
2026-05-03 23:35 22.00697 59.18592 32775 ft 548 kts 130°
2026-05-03 23:35 21.95806 59.24906 32778 ft 549 kts 130°
2026-05-03 23:36 21.90917 59.31209 32772 ft 549 kts 130°
2026-05-03 23:36 21.86030 59.37503 32781 ft 549 kts 130°
2026-05-03 23:37 21.81126 59.43811 32780 ft 549 kts 130°
2026-05-03 23:37 21.76228 59.50106 32754 ft 549 kts 130°
2026-05-03 23:38 21.71320 59.56404 32755 ft 548 kts 130°
2026-05-03 23:38 21.66403 59.62707 32737 ft 549 kts 130°
2026-05-03 23:39 21.61532 59.68944 32742 ft 548 kts 130°
2026-05-03 23:39 21.56582 59.75275 32741 ft 548 kts 130°
2026-05-03 23:40 21.51688 59.81513 32743 ft 548 kts 130°
2026-05-03 23:40 21.46780 59.87739 32744 ft 548 kts 130°
2026-05-03 23:41 21.41821 59.94027 32730 ft 549 kts 130°
2026-05-03 23:41 21.36906 60.00255 32743 ft 549 kts 130°
2026-05-03 23:42 21.31970 60.06501 32746 ft 549 kts 130°
2026-05-03 23:42 21.27037 60.12738 32745 ft 548 kts 130°
2026-05-03 23:43 21.22093 60.18983 32745 ft 549 kts 130°
2026-05-03 23:43 21.17179 60.25205 32770 ft 548 kts 130°
2026-05-03 23:44 21.12248 60.31443 32771 ft 548 kts 130°
2026-05-03 23:44 21.07315 60.37674 32769 ft 548 kts 130°
2026-05-03 23:45 21.02377 60.43903 32766 ft 548 kts 130°
2026-05-03 23:45 20.97453 60.50107 32747 ft 548 kts 130°
2026-05-03 23:46 20.92515 60.56322 32747 ft 548 kts 130°
2026-05-03 23:46 20.87560 60.62550 32746 ft 548 kts 130°
2026-05-03 23:47 20.82656 60.68710 32749 ft 548 kts 130°
2026-05-03 23:47 20.77692 60.74936 32748 ft 547 kts 130°
2026-05-03 23:48 20.72765 60.81109 32748 ft 548 kts 130°
2026-05-03 23:48 20.67804 60.87318 32769 ft 547 kts 130°
2026-05-03 23:49 20.62882 60.93474 32771 ft 546 kts 130°
2026-05-03 23:49 20.58592 61.00125 32753 ft 545 kts 121°
2026-05-03 23:50 20.55210 61.05822 32751 ft 546 kts 122°
2026-05-03 23:50 20.50441 61.13797 32749 ft 546 kts 122°
2026-05-03 23:51 20.46349 61.20635 32771 ft 546 kts 122°
2026-05-03 23:51 20.42276 61.27436 32767 ft 546 kts 122°
2026-05-03 23:52 20.38199 61.34235 32783 ft 545 kts 122°
2026-05-03 23:52 20.34106 61.41052 32760 ft 545 kts 122°
2026-05-03 23:53 20.30007 61.47872 32772 ft 545 kts 122°
2026-05-03 23:53 20.25908 61.54683 32778 ft 545 kts 122°
2026-05-03 23:54 20.21819 61.61469 32775 ft 545 kts 122°
2026-05-03 23:54 20.17719 61.68267 32771 ft 544 kts 122°
2026-05-03 23:55 20.13643 61.75016 32752 ft 543 kts 122°
2026-05-03 23:55 20.09559 61.81772 32757 ft 543 kts 122°
2026-05-03 23:56 20.05471 61.88526 32755 ft 543 kts 122°
2026-05-03 23:56 20.01391 61.95257 32783 ft 542 kts 122°
2026-05-03 23:57 19.97286 62.02024 32773 ft 541 kts 122°
2026-05-03 23:57 19.93204 62.08746 32772 ft 541 kts 122°
2026-05-03 23:58 19.89116 62.15469 32775 ft 540 kts 122°
2026-05-03 23:58 19.85064 62.22126 32776 ft 540 kts 122°
2026-05-03 23:59 19.80974 62.28838 32754 ft 541 kts 122°
2026-05-03 23:59 19.77544 62.34461 32759 ft 542 kts 122°
2026-05-04 00:00 19.73444 62.41176 32758 ft 543 kts 122°
2026-05-04 00:00 19.69358 62.47859 32764 ft 543 kts 122°
2026-05-04 00:01 19.65235 62.54595 32759 ft 544 kts 122°
2026-05-04 00:01 19.61105 62.61336 32771 ft 545 kts 122°
2026-05-04 00:02 19.56995 62.68035 32765 ft 545 kts 122°
2026-05-04 00:02 19.52855 62.74777 32800 ft 543 kts 122°
2026-05-04 00:03 19.48726 62.81493 32791 ft 542 kts 122°
2026-05-04 00:03 19.44609 62.88181 32766 ft 541 kts 122°
2026-05-04 00:04 19.40501 62.94849 32768 ft 541 kts 122°
2026-05-04 00:04 19.36403 63.01493 32767 ft 540 kts 122°
2026-05-04 00:05 19.32287 63.08158 32773 ft 540 kts 122°
2026-05-04 00:05 19.28180 63.14803 32792 ft 539 kts 122°
2026-05-04 00:06 19.24089 63.21411 32779 ft 539 kts 122°
2026-05-04 00:06 19.19981 63.28042 32778 ft 538 kts 122°
2026-05-04 00:07 19.15876 63.34661 32767 ft 538 kts 122°
2026-05-04 00:07 19.11774 63.41269 32766 ft 538 kts 122°
2026-05-04 00:08 19.07648 63.47907 32777 ft 538 kts 122°
2026-05-04 00:08 19.03543 63.54505 32788 ft 538 kts 122°
2026-05-04 00:09 18.99449 63.61084 32784 ft 538 kts 122°
2026-05-04 00:09 18.95329 63.67687 32785 ft 538 kts 122°
2026-05-04 00:10 18.91216 63.74278 32794 ft 538 kts 122°
2026-05-04 00:10 18.87109 63.80856 32787 ft 538 kts 122°
2026-05-04 00:11 18.82987 63.87449 32782 ft 538 kts 122°
2026-05-04 00:11 18.78849 63.94060 32799 ft 538 kts 122°
2026-05-04 00:12 18.74739 64.00620 32789 ft 537 kts 122°
2026-05-04 00:12 18.70616 64.07195 32780 ft 537 kts 122°
2026-05-04 00:13 18.66501 64.13749 32782 ft 537 kts 122°
2026-05-04 00:13 18.62377 64.20311 32781 ft 537 kts 122°
2026-05-04 00:14 18.58228 64.26906 32776 ft 537 kts 122°
2026-05-04 00:14 18.54124 64.33421 32795 ft 536 kts 122°
2026-05-04 00:15 18.49998 64.39965 32780 ft 536 kts 122°
2026-05-04 00:15 18.45851 64.46538 32781 ft 536 kts 122°
2026-05-04 00:16 18.41720 64.53078 32783 ft 536 kts 122°
2026-05-04 00:16 18.37577 64.59628 32781 ft 537 kts 122°
2026-05-04 00:17 18.33446 64.66154 32786 ft 537 kts 122°
2026-05-04 00:17 18.29331 64.72648 32806 ft 535 kts 122°
2026-05-04 00:18 18.25198 64.79163 32799 ft 534 kts 122°
2026-05-04 00:18 18.21070 64.85665 32793 ft 533 kts 122°
2026-05-04 00:19 18.16944 64.92156 32789 ft 533 kts 122°
2026-05-04 00:19 18.12825 64.98629 32785 ft 533 kts 122°
2026-05-04 00:20 18.08706 65.05098 32779 ft 533 kts 122°
2026-05-04 00:20 18.04576 65.11577 32798 ft 532 kts 122°
2026-05-04 00:21 18.00487 65.17983 32797 ft 531 kts 122°
2026-05-04 00:21 17.96361 65.24444 32793 ft 531 kts 122°
2026-05-04 00:22 17.92225 65.30912 32792 ft 531 kts 122°
2026-05-04 00:22 17.88133 65.37306 32786 ft 531 kts 122°
2026-05-04 00:23 17.83999 65.43758 32785 ft 531 kts 122°
2026-05-04 00:23 17.79875 65.50190 32806 ft 530 kts 122°
2026-05-04 00:24 17.75762 65.56598 32806 ft 529 kts 122°
2026-05-04 00:24 17.71677 65.62956 32799 ft 529 kts 122°
2026-05-04 00:25 17.67566 65.69348 32793 ft 529 kts 122°
2026-05-04 00:25 17.63454 65.75737 32793 ft 528 kts 122°
2026-05-04 00:26 17.59366 65.82160 32789 ft 528 kts 121°
2026-05-04 00:26 17.55416 65.88622 32793 ft 528 kts 121°
2026-05-04 00:27 17.51425 65.95126 32801 ft 528 kts 121°
2026-05-04 00:27 17.47460 66.01552 32798 ft 528 kts 121°
2026-05-04 00:28 17.43476 66.07996 32805 ft 528 kts 121°
2026-05-04 00:28 17.39490 66.14437 32801 ft 528 kts 121°
2026-05-04 00:29 17.35489 66.20898 32800 ft 528 kts 121°
2026-05-04 00:29 17.31487 66.27354 32802 ft 528 kts 121°
2026-05-04 00:30 17.27507 66.33769 32802 ft 528 kts 121°
2026-05-04 00:30 17.23502 66.40217 32805 ft 529 kts 121°
2026-05-04 00:31 17.19500 66.46654 32808 ft 529 kts 121°
2026-05-04 00:31 17.15482 66.53112 32812 ft 529 kts 121°
2026-05-04 00:32 17.11473 66.59549 32809 ft 530 kts 122°
2026-05-04 00:32 17.07436 66.66023 32811 ft 530 kts 122°
2026-05-04 00:33 17.01383 66.75721 32817 ft 530 kts 122°
2026-05-04 00:34 16.97349 66.82177 32822 ft 529 kts 122°
2026-05-04 00:34 16.93344 66.88580 32816 ft 529 kts 122°
2026-05-04 00:35 16.89316 66.95014 32807 ft 529 kts 122°
2026-05-04 00:35 16.85280 67.01455 32806 ft 529 kts 122°
2026-05-04 00:36 16.81251 67.07877 32812 ft 529 kts 122°
2026-05-04 00:36 16.77217 67.14304 32813 ft 529 kts 122°
2026-05-04 00:37 16.73192 67.20709 32818 ft 529 kts 122°
2026-05-04 00:37 16.69166 67.27112 32816 ft 529 kts 122°
2026-05-04 00:38 16.65132 67.33519 32819 ft 529 kts 122°
2026-05-04 00:38 16.61062 67.39978 32819 ft 529 kts 122°
2026-05-04 00:39 16.57049 67.46341 32819 ft 529 kts 122°
2026-05-04 00:39 16.53004 67.52750 32820 ft 529 kts 122°
2026-05-04 00:40 16.48942 67.59180 32816 ft 530 kts 122°
2026-05-04 00:40 16.44883 67.65598 32832 ft 529 kts 122°
2026-05-04 00:41 16.40844 67.71979 32830 ft 528 kts 122°
2026-05-04 00:41 16.36785 67.78385 32827 ft 528 kts 122°
2026-05-04 00:42 16.32771 67.84717 32825 ft 528 kts 122°
2026-05-04 00:42 16.28700 67.91132 32822 ft 527 kts 122°
2026-05-04 00:43 16.25357 67.96404 32820 ft 527 kts 122°
2026-05-04 00:43 16.20665 68.03872 32822 ft 527 kts 122°
2026-05-04 00:44 16.16673 68.10225 32838 ft 526 kts 122°
2026-05-04 00:44 16.12654 68.16606 32832 ft 525 kts 122°
2026-05-04 00:45 16.09327 68.21884 32826 ft 525 kts 122°
2026-05-04 00:45 16.05327 68.28223 32823 ft 524 kts 122°
2026-05-04 00:46 16.01326 68.34561 32818 ft 524 kts 122°
2026-05-04 00:46 15.97316 68.40905 32819 ft 524 kts 122°
2026-05-04 00:47 15.93343 68.47186 32820 ft 524 kts 122°
2026-05-04 00:47 15.89331 68.53526 32827 ft 523 kts 122°
2026-05-04 00:48 15.85330 68.59840 32828 ft 523 kts 122°
2026-05-04 00:48 15.81324 68.66156 32827 ft 523 kts 122°
2026-05-04 00:49 15.77321 68.72464 32825 ft 523 kts 122°
2026-05-04 00:49 15.73301 68.78791 32826 ft 523 kts 122°
2026-05-04 00:50 15.69315 68.85060 32826 ft 523 kts 122°
2026-05-04 00:50 15.65312 68.91353 32825 ft 523 kts 122°
2026-05-04 00:51 15.61321 68.97619 32836 ft 522 kts 123°
2026-05-04 00:51 15.57328 69.03884 32836 ft 521 kts 122°
2026-05-04 00:52 15.53288 69.10216 32826 ft 521 kts 122°
2026-05-04 00:52 15.49314 69.16442 32828 ft 521 kts 122°
2026-05-04 00:53 15.45316 69.22700 32822 ft 521 kts 123°
2026-05-04 00:53 15.41313 69.28958 32828 ft 521 kts 122°
2026-05-04 00:54 15.37300 69.35229 32820 ft 521 kts 123°
2026-05-04 00:54 15.33310 69.41457 32828 ft 521 kts 123°
2026-05-04 00:55 15.29283 69.47739 32825 ft 521 kts 123°
2026-05-04 00:55 15.25291 69.53961 32830 ft 521 kts 123°
2026-05-04 00:56 15.21271 69.60222 32828 ft 522 kts 123°
2026-05-04 00:56 15.17247 69.66484 32828 ft 522 kts 123°
2026-05-04 00:57 15.13223 69.72739 32827 ft 522 kts 123°
2026-05-04 00:57 15.09211 69.79005 32830 ft 522 kts 123°
2026-05-04 00:58 15.05260 69.85248 32837 ft 522 kts 123°
2026-05-04 00:58 15.01276 69.91530 32834 ft 522 kts 123°
2026-05-04 00:59 14.97302 69.97783 32835 ft 521 kts 123°
2026-05-04 00:59 14.93305 70.04065 32831 ft 521 kts 123°
2026-05-04 01:00 14.89338 70.10296 32829 ft 521 kts 123°
2026-05-04 01:00 14.85367 70.16528 32829 ft 521 kts 123°
2026-05-04 01:01 14.81378 70.22785 32836 ft 520 kts 123°
2026-05-04 01:01 14.77398 70.29021 32832 ft 520 kts 123°
2026-05-04 01:02 14.73398 70.35282 32842 ft 520 kts 123°
2026-05-04 01:02 14.69412 70.41519 32836 ft 520 kts 123°
2026-05-04 01:03 14.65433 70.47738 32839 ft 519 kts 123°
2026-05-04 01:03 14.61464 70.53938 32830 ft 519 kts 123°
2026-05-04 01:04 14.57480 70.60156 32836 ft 519 kts 123°
2026-05-04 01:04 14.53506 70.66354 32836 ft 519 kts 123°
2026-05-04 01:05 14.49520 70.72567 32842 ft 519 kts 123°
2026-05-04 01:05 14.45525 70.78788 32837 ft 519 kts 123°
2026-05-04 01:06 14.41561 70.84956 32837 ft 519 kts 123°
2026-05-04 01:06 14.37556 70.91184 32837 ft 519 kts 123°
2026-05-04 01:07 14.33583 70.97370 32843 ft 519 kts 123°
2026-05-04 01:07 14.29640 71.03629 32839 ft 519 kts 123°
2026-05-04 01:08 14.25703 71.09879 32841 ft 519 kts 123°
2026-05-04 01:08 14.21778 71.16089 32838 ft 519 kts 123°
2026-05-04 01:09 14.17835 71.22320 32845 ft 519 kts 123°
2026-05-04 01:09 14.13892 71.28545 32841 ft 518 kts 123°
2026-05-04 01:10 14.09933 71.34794 32845 ft 518 kts 123°
2026-05-04 01:10 14.06057 71.40904 32841 ft 518 kts 123°
2026-05-04 01:11 14.02079 71.47173 32842 ft 518 kts 123°
2026-05-04 01:11 13.98134 71.53383 32838 ft 518 kts 123°
2026-05-04 01:12 13.94192 71.59587 32849 ft 517 kts 123°
2026-05-04 01:12 13.90239 71.65800 32840 ft 517 kts 123°
2026-05-04 01:13 13.86327 71.71946 32837 ft 517 kts 123°
2026-05-04 01:13 13.82360 71.78173 32841 ft 516 kts 123°
2026-05-04 01:14 13.78462 71.84286 32847 ft 516 kts 123°
2026-05-04 01:14 13.74523 71.90461 32844 ft 516 kts 123°
2026-05-04 01:15 13.70576 71.96645 32842 ft 515 kts 123°
2026-05-04 01:15 13.66398 72.02600 32841 ft 514 kts 130°
2026-05-04 01:16 13.61839 72.08325 32829 ft 515 kts 129°
2026-05-04 01:16 13.57349 72.14012 32847 ft 515 kts 129°
2026-05-04 01:17 13.52798 72.19774 32846 ft 515 kts 129°
2026-05-04 01:17 13.48331 72.25419 32847 ft 515 kts 129°
2026-05-04 01:18 13.43800 72.31143 32840 ft 515 kts 130°
2026-05-04 01:18 13.39266 72.36865 32842 ft 515 kts 130°
2026-05-04 01:19 13.34765 72.42541 32853 ft 515 kts 130°
2026-05-04 01:19 13.30220 72.48271 32844 ft 515 kts 130°
2026-05-04 01:20 13.25705 72.53957 32846 ft 515 kts 130°
2026-05-04 01:20 13.21168 72.59669 32845 ft 515 kts 130°
2026-05-04 01:21 13.16624 72.65385 32839 ft 516 kts 130°
2026-05-04 01:21 13.12072 72.71105 32850 ft 516 kts 130°
2026-05-04 01:22 13.07566 72.76768 32848 ft 517 kts 130°
2026-05-04 01:22 13.03000 72.82500 32852 ft 517 kts 130°
2026-05-04 01:23 12.98460 72.88197 32851 ft 517 kts 130°
2026-05-04 01:23 12.93919 72.93890 32853 ft 517 kts 130°
2026-05-04 01:24 12.89383 72.99576 32847 ft 517 kts 130°
2026-05-04 01:24 12.84830 73.05278 32852 ft 517 kts 130°
2026-05-04 01:25 12.80251 73.11008 32853 ft 517 kts 130°
2026-05-04 01:25 12.75680 73.16725 32853 ft 517 kts 130°
2026-05-04 01:26 12.71147 73.22392 32853 ft 517 kts 130°
2026-05-04 01:26 12.66583 73.28093 32858 ft 517 kts 130°
2026-05-04 01:27 12.62032 73.33775 32855 ft 518 kts 130°
2026-05-04 01:27 12.57442 73.39502 32851 ft 518 kts 130°
2026-05-04 01:28 12.52878 73.45192 32851 ft 518 kts 130°
2026-05-04 01:28 12.48322 73.50868 32855 ft 518 kts 130°
2026-05-04 01:29 12.43737 73.56578 32859 ft 519 kts 130°
2026-05-04 01:29 12.39152 73.62284 32860 ft 519 kts 130°
2026-05-04 01:30 12.34578 73.67974 32860 ft 519 kts 130°
2026-05-04 01:30 12.29978 73.73692 32859 ft 519 kts 130°
2026-05-04 01:31 12.25395 73.79384 32865 ft 519 kts 130°
2026-05-04 01:31 12.21582 73.84120 32864 ft 518 kts 130°
2026-05-04 01:32 12.16995 73.89812 32861 ft 518 kts 130°
2026-05-04 01:32 12.11674 73.96410 32856 ft 518 kts 130°
2026-05-04 01:33 12.07830 74.01174 32852 ft 517 kts 130°
2026-05-04 01:33 12.03238 74.06862 32850 ft 518 kts 130°
2026-05-04 01:34 11.98686 74.12498 32849 ft 518 kts 130°
2026-05-04 01:34 11.94094 74.18179 32866 ft 517 kts 130°
2026-05-04 01:35 11.89538 74.23812 32869 ft 517 kts 130°
2026-05-04 01:35 11.84939 74.29496 32862 ft 516 kts 130°
2026-05-04 01:36 11.80407 74.35095 32853 ft 516 kts 130°
2026-05-04 01:36 11.75803 74.40776 32850 ft 516 kts 130°
2026-05-04 01:37 11.71208 74.46445 32849 ft 516 kts 130°
2026-05-04 01:37 11.66685 74.52021 32853 ft 516 kts 130°
2026-05-04 01:38 11.62071 74.57708 32856 ft 517 kts 130°
2026-05-04 01:38 11.57478 74.63365 32878 ft 515 kts 131°
2026-05-04 01:39 11.52954 74.68933 32874 ft 514 kts 131°
2026-05-04 01:39 11.48402 74.74532 32863 ft 513 kts 131°
2026-05-04 01:40 11.43851 74.80127 32852 ft 512 kts 131°
2026-05-04 01:40 11.39293 74.85728 32854 ft 512 kts 131°
2026-05-04 01:41 11.34753 74.91307 32852 ft 512 kts 131°
2026-05-04 01:41 11.30204 74.96887 32852 ft 512 kts 130°
2026-05-04 01:42 11.25631 75.02495 32852 ft 512 kts 131°
2026-05-04 01:42 11.21080 75.08077 32828 ft 513 kts 131°
2026-05-04 01:43 11.16544 75.13634 32840 ft 514 kts 130°
2026-05-04 01:43 11.11960 75.19248 32851 ft 515 kts 131°
2026-05-04 01:44 11.07391 75.24842 32855 ft 516 kts 131°
2026-05-04 01:44 11.02794 75.30465 32871 ft 516 kts 131°
2026-05-04 01:45 10.98223 75.36055 32871 ft 516 kts 131°
2026-05-04 01:45 10.91343 75.44461 32870 ft 515 kts 130°
2026-05-04 01:46 10.86785 75.50027 32865 ft 514 kts 130°
2026-05-04 01:46 10.82163 75.55670 32858 ft 514 kts 130°
2026-05-04 01:47 10.77573 75.61268 32866 ft 514 kts 130°
2026-05-04 01:47 10.73021 75.66819 32860 ft 514 kts 130°
2026-05-04 01:48 10.68436 75.72405 32861 ft 514 kts 130°
2026-05-04 01:48 10.63849 75.77991 32867 ft 514 kts 130°
2026-05-04 01:49 10.59253 75.83587 32860 ft 515 kts 130°
2026-05-04 01:49 10.54653 75.89184 32868 ft 515 kts 130°
2026-05-04 01:50 10.50057 75.94772 32870 ft 516 kts 130°
2026-05-04 01:50 10.45479 76.00337 32871 ft 516 kts 130°
2026-05-04 01:51 10.40871 76.05934 32877 ft 516 kts 130°
2026-05-04 01:51 10.36251 76.11544 32873 ft 516 kts 130°
2026-05-04 01:52 10.31652 76.17128 32872 ft 516 kts 131°
2026-05-04 01:52 10.27059 76.22698 32872 ft 516 kts 131°
2026-05-04 01:53 10.22441 76.28295 32863 ft 515 kts 131°
2026-05-04 01:53 10.17872 76.33832 32857 ft 515 kts 131°
2026-05-04 01:54 10.13262 76.39413 32855 ft 514 kts 131°
2026-05-04 01:54 10.08658 76.44951 32852 ft 514 kts 131°
2026-05-04 01:55 10.04026 76.50521 32854 ft 514 kts 131°
2026-05-04 01:55 9.99423 76.56056 32868 ft 514 kts 131°
2026-05-04 01:56 9.94798 76.61615 32876 ft 514 kts 131°
2026-05-04 01:56 9.90214 76.67124 32902 ft 513 kts 131°
2026-05-04 01:57 9.85603 76.72661 32897 ft 513 kts 131°
2026-05-04 01:57 9.81016 76.78167 32896 ft 513 kts 131°
2026-05-04 01:58 9.76395 76.83713 32912 ft 513 kts 131°
2026-05-04 01:58 9.71784 76.89242 32918 ft 512 kts 131°
2026-05-04 01:59 9.67173 76.94769 32930 ft 512 kts 131°
2026-05-04 01:59 9.62572 77.00281 32928 ft 512 kts 131°
2026-05-04 02:00 9.58005 77.05750 32925 ft 511 kts 131°
2026-05-04 02:00 9.53416 77.11244 32930 ft 511 kts 131°
2026-05-04 02:01 9.48809 77.16756 32927 ft 511 kts 131°
2026-05-04 02:01 9.44204 77.22263 32918 ft 511 kts 131°
2026-05-04 02:02 9.39633 77.27726 32904 ft 511 kts 131°
2026-05-04 02:02 9.35034 77.33224 32906 ft 512 kts 131°
2026-05-04 02:03 9.30420 77.38735 32884 ft 512 kts 131°
2026-05-04 02:03 9.25812 77.44236 32886 ft 512 kts 131°
2026-05-04 02:04 9.21224 77.49711 32887 ft 513 kts 131°
2026-05-04 02:04 9.16563 77.55270 32868 ft 513 kts 131°
2026-05-04 02:05 9.11967 77.60751 32887 ft 512 kts 131°
2026-05-04 02:05 9.07377 77.66220 32886 ft 511 kts 131°
2026-05-04 02:06 9.02772 77.71704 32868 ft 510 kts 131°
2026-05-04 02:06 8.98185 77.77164 32859 ft 509 kts 131°
2026-05-04 02:07 8.93591 77.82632 32851 ft 508 kts 131°
2026-05-04 02:07 8.89023 77.88067 32847 ft 507 kts 131°
2026-05-04 02:08 8.84442 77.93513 32830 ft 508 kts 131°
2026-05-04 02:08 8.79885 77.98931 32856 ft 508 kts 131°
2026-05-04 02:09 8.75304 78.04373 32857 ft 508 kts 131°
2026-05-04 02:09 8.70720 78.09817 32856 ft 508 kts 131°
2026-05-04 02:10 8.66135 78.15259 32858 ft 508 kts 132°
2026-05-04 02:10 8.61552 78.20697 32859 ft 508 kts 132°
2026-05-04 02:11 8.56965 78.26138 32860 ft 508 kts 132°
2026-05-04 02:11 8.52385 78.31570 32862 ft 508 kts 132°
2026-05-04 02:12 8.47808 78.36994 32861 ft 508 kts 132°
2026-05-04 02:12 8.43238 78.42409 32866 ft 508 kts 132°
2026-05-04 02:13 8.38613 78.47886 32866 ft 508 kts 132°
2026-05-04 02:13 8.34051 78.53284 32865 ft 508 kts 132°
2026-05-04 02:14 8.29464 78.58712 32871 ft 508 kts 132°
2026-05-04 02:14 8.24809 78.64087 32874 ft 508 kts 134°
2026-05-04 02:15 8.20059 78.69374 32869 ft 508 kts 133°
2026-05-04 02:15 8.15348 78.74651 32906 ft 506 kts 133°
2026-05-04 02:16 8.10638 78.79946 32890 ft 505 kts 133°
2026-05-04 02:16 8.05943 78.85223 32882 ft 505 kts 133°
2026-05-04 02:17 8.01280 78.90463 32889 ft 504 kts 133°
2026-05-04 02:17 7.96605 78.95714 32890 ft 503 kts 134°
2026-05-04 02:18 7.92704 79.00092 32873 ft 503 kts 133°
2026-05-04 02:18 7.88021 79.05347 32876 ft 503 kts 133°
2026-05-04 02:19 7.83350 79.10586 32894 ft 503 kts 133°
2026-05-04 02:19 7.78668 79.15837 32873 ft 502 kts 133°
2026-05-04 02:20 7.74001 79.21068 32862 ft 503 kts 133°
2026-05-04 02:20 7.69352 79.26289 32872 ft 503 kts 132°
2026-05-04 02:21 7.64731 79.31566 32885 ft 502 kts 132°
2026-05-04 02:21 7.60104 79.36847 32873 ft 503 kts 132°
2026-05-04 02:22 7.55467 79.42129 32883 ft 503 kts 132°
2026-05-04 02:22 7.50815 79.47422 32876 ft 504 kts 132°
2026-05-04 02:23 7.46157 79.52722 32867 ft 505 kts 132°
2026-05-04 02:23 7.41526 79.57988 32875 ft 505 kts 133°
2026-05-04 02:24 7.36834 79.63323 32882 ft 506 kts 133°
2026-05-04 02:24 7.32192 79.68597 32879 ft 506 kts 133°
2026-05-04 02:25 7.27483 79.73947 32866 ft 506 kts 132°
2026-05-04 02:25 7.22836 79.79226 32869 ft 506 kts 132°
2026-05-04 02:26 7.18174 79.84519 32865 ft 506 kts 132°
2026-05-04 02:26 7.13495 79.89834 32853 ft 506 kts 132°
2026-05-04 02:27 7.08841 79.95148 32867 ft 506 kts 132°
2026-05-04 02:27 7.04214 80.00427 32866 ft 506 kts 132°
2026-05-04 02:28 6.99518 80.05779 32873 ft 507 kts 132°
2026-05-04 02:28 6.94870 80.11076 32876 ft 508 kts 132°
2026-05-04 02:29 6.90198 80.16399 32883 ft 508 kts 132°
2026-05-04 02:29 6.85522 80.21722 32903 ft 508 kts 132°
2026-05-04 02:30 6.80849 80.27040 32905 ft 507 kts 132°
2026-05-04 02:30 6.76190 80.32342 32921 ft 507 kts 132°
2026-05-04 02:31 6.71507 80.37670 32917 ft 507 kts 132°
2026-05-04 02:31 6.66804 80.43017 32917 ft 507 kts 132°
2026-05-04 02:32 6.62156 80.48302 32929 ft 507 kts 132°
2026-05-04 02:32 6.57489 80.53605 32930 ft 507 kts 132°
2026-05-04 02:33 6.52818 80.58912 32940 ft 506 kts 132°
2026-05-04 02:33 6.48150 80.64215 32933 ft 504 kts 132°
2026-05-04 02:34 6.43579 80.69518 32915 ft 504 kts 131°
2026-05-04 02:34 6.39029 80.74878 32914 ft 503 kts 131°
2026-05-04 02:35 6.34445 80.80253 32904 ft 502 kts 131°
2026-05-04 02:35 6.29939 80.85526 32889 ft 502 kts 131°
2026-05-04 02:36 6.25353 80.90888 32880 ft 502 kts 131°
2026-05-04 02:36 6.20836 80.96170 32898 ft 500 kts 131°
2026-05-04 02:37 6.16310 81.01461 32889 ft 499 kts 131°
2026-05-04 02:37 6.11772 81.06763 32884 ft 499 kts 131°
2026-05-04 02:38 6.07221 81.12046 32887 ft 498 kts 132°
2026-05-04 02:38 6.02701 81.17269 32893 ft 498 kts 132°
2026-05-04 02:39 5.98147 81.22538 32899 ft 498 kts 132°
2026-05-04 02:39 5.93592 81.27807 32889 ft 500 kts 132°
2026-05-04 02:40 5.89041 81.33075 32899 ft 499 kts 132°
2026-05-04 02:40 5.84496 81.38331 32890 ft 500 kts 132°
2026-05-04 02:41 5.79928 81.43609 32887 ft 501 kts 132°
2026-05-04 02:41 5.75371 81.48879 32897 ft 501 kts 132°
2026-05-04 02:42 5.70787 81.54177 32934 ft 501 kts 132°
2026-05-04 02:42 5.66233 81.59437 32904 ft 501 kts 132°
2026-05-04 02:43 5.61647 81.64735 32894 ft 502 kts 132°
2026-05-04 02:43 5.57069 81.70060 32950 ft 500 kts 132°
2026-05-04 02:44 5.52533 81.75334 32936 ft 499 kts 132°
2026-05-04 02:44 5.47985 81.80619 32891 ft 499 kts 132°
2026-05-04 02:45 5.43458 81.85879 32908 ft 498 kts 132°
2026-05-04 02:45 5.38923 81.91145 32892 ft 498 kts 132°
2026-05-04 02:46 5.34393 81.96402 32881 ft 499 kts 132°
2026-05-04 02:46 5.29855 82.01671 32896 ft 498 kts 132°
2026-05-04 02:47 5.25328 82.06923 32886 ft 499 kts 131°
2026-05-04 02:47 5.20778 82.12203 32891 ft 501 kts 131°
2026-05-04 02:48 5.16216 82.17495 32904 ft 502 kts 131°
2026-05-04 02:48 5.11622 82.22823 32931 ft 503 kts 132°
2026-05-04 02:49 5.07074 82.28095 32937 ft 504 kts 131°
2026-05-04 02:49 5.02462 82.33439 32904 ft 505 kts 132°
2026-05-04 02:50 4.97905 82.38720 32911 ft 504 kts 132°
2026-05-04 02:50 4.93294 82.44060 32931 ft 502 kts 131°
2026-05-04 02:51 4.88756 82.49315 32890 ft 502 kts 131°
2026-05-04 02:51 4.84217 82.54573 32894 ft 501 kts 131°
2026-05-04 02:52 4.79619 82.59898 32914 ft 500 kts 131°
2026-05-04 02:52 4.75055 82.65180 32898 ft 501 kts 131°
2026-05-04 02:53 4.70486 82.70468 32918 ft 501 kts 131°
2026-05-04 02:53 4.65943 82.75724 32923 ft 501 kts 131°
2026-05-04 02:54 4.61376 82.81005 32905 ft 502 kts 131°
2026-05-04 02:54 4.56794 82.86304 32900 ft 503 kts 131°
2026-05-04 02:55 4.49915 82.94257 32910 ft 505 kts 131°
2026-05-04 02:56 4.45308 82.99582 32920 ft 506 kts 131°
2026-05-04 02:56 4.40701 83.04906 32942 ft 507 kts 131°
2026-05-04 02:57 4.36084 83.10241 32952 ft 508 kts 131°
2026-05-04 02:57 4.31453 83.15589 32917 ft 508 kts 131°
2026-05-04 02:58 4.26822 83.20937 32923 ft 508 kts 131°
2026-05-04 02:58 4.22182 83.26295 32923 ft 508 kts 131°
2026-05-04 02:59 4.17545 83.31647 32944 ft 508 kts 131°
2026-05-04 02:59 4.12931 83.36973 32925 ft 508 kts 131°
2026-05-04 03:00 4.08302 83.42315 32921 ft 507 kts 131°
2026-05-04 03:00 4.03685 83.47641 32918 ft 507 kts 131°
2026-05-04 03:01 3.99074 83.52960 32916 ft 507 kts 131°
2026-05-04 03:01 3.94447 83.58296 32933 ft 506 kts 130°
2026-05-04 03:02 3.89831 83.63620 32911 ft 505 kts 130°
2026-05-04 03:02 3.85241 83.68912 32945 ft 504 kts 130°
2026-05-04 03:03 3.80648 83.74206 32907 ft 503 kts 130°
2026-05-04 03:03 3.76048 83.79507 32907 ft 503 kts 130°
2026-05-04 03:04 3.71443 83.84814 32915 ft 503 kts 130°
2026-05-04 03:04 3.66860 83.90094 32902 ft 503 kts 130°
2026-05-04 03:05 3.62277 83.95374 32891 ft 505 kts 130°
2026-05-04 03:05 3.57664 84.00686 32906 ft 507 kts 130°
2026-05-04 03:06 3.53810 84.05124 32935 ft 508 kts 130°
2026-05-04 03:06 3.49123 84.10414 32938 ft 509 kts 131°
2026-05-04 03:07 3.44353 84.15665 32937 ft 510 kts 131°
2026-05-04 03:07 3.39591 84.20930 32913 ft 510 kts 131°
2026-05-04 03:08 3.34844 84.26195 32930 ft 511 kts 131°
2026-05-04 03:08 3.30051 84.31512 32929 ft 512 kts 131°
2026-05-04 03:09 3.25313 84.36767 32933 ft 512 kts 131°
2026-05-04 03:09 3.20525 84.42074 32934 ft 513 kts 131°
2026-05-04 03:10 3.15747 84.47369 32928 ft 513 kts 131°
2026-05-04 03:10 3.10965 84.52670 32928 ft 513 kts 131°
2026-05-04 03:11 3.06189 84.57964 32938 ft 513 kts 131°
2026-05-04 03:11 3.01388 84.63281 32904 ft 513 kts 131°
2026-05-04 03:12 2.96590 84.68598 32891 ft 515 kts 131°
2026-05-04 03:12 2.91808 84.73895 32921 ft 516 kts 131°
2026-05-04 03:13 2.86989 84.79232 32925 ft 517 kts 131°
2026-05-04 03:13 2.82158 84.84580 32899 ft 518 kts 131°
2026-05-04 03:14 2.77324 84.89933 32931 ft 519 kts 131°
2026-05-04 03:14 2.72492 84.95282 32935 ft 519 kts 131°
2026-05-04 03:15 2.67657 85.00634 32926 ft 518 kts 131°
2026-05-04 03:15 2.62842 85.05964 32926 ft 518 kts 131°
2026-05-04 03:16 2.58020 85.11301 32928 ft 517 kts 131°
2026-05-04 03:16 2.53226 85.16605 32937 ft 516 kts 131°
2026-05-04 03:17 2.48406 85.21937 32924 ft 515 kts 131°
2026-05-04 03:17 2.43604 85.27250 32924 ft 515 kts 131°
2026-05-04 03:18 2.38800 85.32563 32921 ft 515 kts 131°
2026-05-04 03:18 2.33995 85.37878 32925 ft 514 kts 131°
2026-05-04 03:19 2.29192 85.43189 32927 ft 514 kts 131°
2026-05-04 03:19 2.24415 85.48471 32896 ft 515 kts 131°
2026-05-04 03:20 2.19620 85.53773 32924 ft 515 kts 131°
2026-05-04 03:20 2.14814 85.59086 32926 ft 515 kts 131°
2026-05-04 03:21 2.10005 85.64402 32904 ft 514 kts 131°
2026-05-04 03:21 2.05206 85.69707 32903 ft 514 kts 131°
2026-05-04 03:22 2.00400 85.75019 32904 ft 515 kts 131°
2026-05-04 03:22 1.95585 85.80341 32938 ft 514 kts 131°
2026-05-04 03:23 1.90826 85.85599 32926 ft 514 kts 131°
2026-05-04 03:23 1.86031 85.90896 32897 ft 515 kts 131°
2026-05-04 03:24 1.81226 85.96205 32902 ft 515 kts 131°
2026-05-04 03:24 1.76412 86.01524 32927 ft 515 kts 131°
2026-05-04 03:25 1.71610 86.06828 32926 ft 515 kts 131°
2026-05-04 03:25 1.66804 86.12136 32932 ft 515 kts 131°
2026-05-04 03:26 1.62018 86.17422 32904 ft 515 kts 131°
2026-05-04 03:26 1.57067 86.22640 32939 ft 514 kts 133°
2026-05-04 03:27 1.52093 86.27797 32941 ft 513 kts 133°
2026-05-04 03:27 1.47159 86.32948 32928 ft 512 kts 133°
2026-05-04 03:28 1.42269 86.38069 32906 ft 512 kts 133°
2026-05-04 03:28 1.37349 86.43221 32906 ft 511 kts 133°
2026-05-04 03:29 1.32452 86.48348 32923 ft 511 kts 133°
2026-05-04 03:29 1.27539 86.53492 32905 ft 510 kts 133°
2026-05-04 03:30 1.22668 86.58590 32936 ft 509 kts 133°
2026-05-04 03:30 1.17796 86.63689 32927 ft 509 kts 133°
2026-05-04 03:31 1.12859 86.68857 32906 ft 509 kts 133°
2026-05-04 03:31 1.07971 86.73974 32912 ft 509 kts 133°
2026-05-04 03:32 1.03102 86.79069 32905 ft 509 kts 133°
2026-05-04 03:32 0.98217 86.84181 32910 ft 510 kts 133°
2026-05-04 03:33 0.93316 86.89309 32909 ft 510 kts 133°
2026-05-04 03:33 0.88411 86.94443 32912 ft 510 kts 133°
2026-05-04 03:34 0.83538 86.99540 32947 ft 509 kts 133°
2026-05-04 03:34 0.78653 87.04653 32936 ft 508 kts 133°
2026-05-04 03:35 0.73765 87.09767 32909 ft 508 kts 133°
2026-05-04 03:35 0.68887 87.14870 32914 ft 508 kts 133°
2026-05-04 03:36 0.64001 87.19982 32917 ft 508 kts 133°
2026-05-04 03:36 0.59117 87.25091 32934 ft 508 kts 133°
2026-05-04 03:37 0.54229 87.30206 32937 ft 509 kts 133°
2026-05-04 03:37 0.49334 87.35326 32941 ft 509 kts 133°
2026-05-04 03:38 0.44475 87.40410 32942 ft 509 kts 133°
2026-05-04 03:38 0.39581 87.45531 32943 ft 508 kts 133°
2026-05-04 03:39 0.34682 87.50657 32942 ft 508 kts 133°
2026-05-04 03:39 0.29804 87.55760 32943 ft 508 kts 133°
2026-05-04 03:40 0.24944 87.60846 32939 ft 508 kts 133°
2026-05-04 03:40 0.20047 87.65969 32940 ft 508 kts 133°
2026-05-04 03:41 0.15197 87.71043 32942 ft 508 kts 133°
2026-05-04 03:41 0.10308 87.76158 32918 ft 508 kts 132°
2026-05-04 03:42 0.05420 87.81272 32919 ft 509 kts 132°
2026-05-04 03:42 0.00530 87.86388 32924 ft 510 kts 133°
2026-05-04 03:43 -0.04391 87.91537 32919 ft 511 kts 133°
2026-05-04 03:43 -0.09295 87.96667 32944 ft 512 kts 133°
2026-05-04 03:44 -0.14229 88.01829 32951 ft 513 kts 133°
2026-05-04 03:44 -0.19131 88.06958 32923 ft 513 kts 133°
2026-05-04 03:45 -0.24053 88.12108 32961 ft 512 kts 133°
2026-05-04 03:45 -0.28986 88.17269 32953 ft 511 kts 133°